ECHOSTAR 18

Last updated on Wed Oct 29 2025 00:02:49 GMT+0000 (Coordinated Universal Time)

1 41592U 16039B 25301.51879683 -.00000272 00000+0 00000+0 0 9998 2 41592 0.0190 242.8239 0001455 324.8531 314.8835 1.00272020 34300
UTC large
Height (km)
Speed (km/s)
/
Latitude / Longitude
Inclination (degrees)
Orbital Period (minutes)
Azimuth
Elevation
Range (km)
Doppler Factor

Next 0 passes for location: London (51.5072 / 0.1276)

Sorry there are no passes over London.